Terug naar catalogus

MOLA

ActiefWetenschapVLEO
NORAD 59289·PAYLOAD·🇺🇸 United States

Gelanceerd Mar 21, 2024 vanaf Wallops Flight Facility

Loading…

Volgende Passages (komende 24 uur)

TLE

VersSource: Space-Track

Epoch: Sep 14, 2026, 04:30 UTC

1 59289U 24053B   26257.18786012  .00051015  00000-0  46057-3 0  9999
2 59289  49.9828 188.1943 0001937  81.2297 278.8896 15.67568545135423

Volg MOLA in realtime met AllMySat

Download on the App Store